Location: St. Louis
(38.6270°N, 90.1994°W)
Time: 13:59:11
(UTC-06:00)

Transit 4A - Pass Details

Date: 05 December 2021
Orbit: 864 x 980 km, 66.8° (Epoch: 16 January)

Event Time Altitude Azimuth Distance (km) Brightness Sun altitude
Rises 19:21:44 0° 227° (SW) 3,446 11.6 -31.0°
Reaches altitude 10° 19:24:19 10° 234° (SW) 2,522 10.8 -31.5°
Maximum altitude 19:29:50 43° 305° (NW) 1,238 8.7 -32.6°
Enters shadow 19:30:38 41° 326° (NW) 1,283 8.7 -32.7°
Drops below altitude 10° 19:35:31 10° 16° (NNE) 2,601 - -33.7°
Sets 19:38:14 0° 23° (NNE) 3,565 - -34.2°
